Location: Aufkirchen
(47.9603°N, 11.3653°E)
Time: 00:12:13
(UTC+01:00)

A-11 Canister half - All Passes

Search period start: 06 December 2020 00:00
Search period end: 16 December 2020 00:00
Orbit: 1516 x 1684 km, 47.2° (Epoch: 05 December)

Date Brightness Start Highest point End Pass type
(mag) Time Alt. Az. Time Alt. Az. Time Alt. Az.
06 Dec - 08:51:59 10° SSW 09:00:18 35° SE 09:08:53 10° ENE daylight
06 Dec - 10:54:35 10° WSW 11:04:15 72° SSE 11:14:16 10° ENE daylight
06 Dec - 12:59:19 10° W 13:09:16 87° S 13:19:29 10° E daylight
06 Dec - 15:04:19 10° WNW 15:14:09 63° SSW 15:24:07 10° SE daylight
06 Dec - 17:09:57 10° W 17:17:51 27° SW 17:25:47 10° S visible
07 Dec - 08:29:20 10° SSW 08:37:28 33° SE 08:45:51 10° ENE daylight
07 Dec - 10:31:43 10° WSW 10:41:20 70° SSE 10:51:18 10° ENE daylight
07 Dec - 12:36:23 10° W 12:46:19 87° S 12:56:31 10° E daylight
07 Dec - 14:41:23 10° WNW 14:51:14 65° SSW 15:01:14 10° SE daylight
07 Dec - 16:46:55 10° W 16:55:01 29° SW 17:03:09 10° S visible
08 Dec - 08:06:42 10° SSW 08:14:39 31° SE 08:22:50 10° ENE daylight
08 Dec - 10:08:52 10° WSW 10:18:25 68° SSE 10:28:21 10° ENE daylight
08 Dec - 12:13:28 10° W 12:23:21 87° S 12:33:32 10° E daylight
08 Dec - 14:18:27 10° WNW 14:28:18 67° SSW 14:38:20 10° SE daylight
08 Dec - 16:23:52 10° WNW 16:32:10 30° SW 16:40:30 10° S daylight
09 Dec - 07:44:05 10° S 07:51:49 29° SE 07:59:46 10° E daylight
09 Dec - 09:46:01 10° SW 09:55:31 66° SSE 10:05:22 10° ENE daylight
09 Dec - 11:50:33 10° W 12:00:24 87° S 12:10:34 10° E daylight
09 Dec - 13:55:31 10° WNW 14:05:23 69° SSW 14:15:26 10° ESE daylight
09 Dec - 16:00:52 10° WNW 16:09:19 32° SW 16:17:51 10° SSE daylight
10 Dec - 07:21:29 10° S 07:29:00 27° SE 07:36:42 10° E daylight
10 Dec - 09:23:11 10° SW 09:32:36 64° SSE 09:42:25 10° ENE daylight
10 Dec - 11:27:38 10° W 11:37:27 87° S 11:47:36 10° E daylight
10 Dec - 13:32:35 10° WNW 13:42:27 71° SSW 13:52:31 10° ESE daylight
10 Dec - 15:37:52 10° WNW 15:46:27 34° SW 15:55:09 10° SSE daylight
11 Dec - 06:58:55 10° S 07:06:11 26° SE 07:13:38 10° E visible
11 Dec - 09:00:21 10° SW 09:09:42 62° SSE 09:19:26 10° ENE daylight
11 Dec - 11:04:43 10° W 11:14:30 87° S 11:24:37 10° E daylight
11 Dec - 13:09:40 10° WNW 13:19:31 72° SSW 13:29:36 10° ESE daylight
11 Dec - 15:14:52 10° WNW 15:23:36 36° SW 15:32:26 10° SSE daylight
12 Dec - 06:36:23 10° S 06:43:24 24° SE 06:50:34 10° E visible
12 Dec - 08:37:31 10° SW 08:46:49 60° SSE 08:56:28 10° ENE daylight
12 Dec - 10:41:48 10° W 10:51:33 86° S 11:01:39 10° E daylight
12 Dec - 12:46:45 10° WNW 12:56:35 74° SSW 13:06:41 10° ESE daylight
12 Dec - 14:51:53 10° WNW 15:00:44 38° SW 15:09:42 10° SSE daylight
13 Dec - 06:13:52 10° S 06:20:35 22° SE 06:27:27 10° E visible
13 Dec - 08:14:43 10° SW 08:23:56 58° SSE 08:33:30 10° ENE daylight
13 Dec - 10:18:53 10° W 10:28:36 86° S 10:38:40 10° E daylight
13 Dec - 12:23:49 10° W 12:33:39 76° SSW 12:43:44 10° ESE daylight
13 Dec - 14:28:55 10° WNW 14:37:52 39° SW 14:46:58 10° SSE daylight
13 Dec - 16:38:30 10° WSW 16:40:39 11° WSW 16:42:50 10° SW daylight
14 Dec - 05:51:24 10° S 05:57:47 21° SE 06:04:18 10° E visible
14 Dec - 07:51:54 10° SW 08:01:03 56° SSE 08:10:33 10° ENE daylight
14 Dec - 09:55:59 10° W 10:05:40 85° S 10:15:43 10° E daylight
14 Dec - 12:00:55 10° W 12:10:43 77° SSW 12:20:49 10° ESE daylight
14 Dec - 14:05:57 10° WNW 14:15:00 41° SW 14:24:12 10° SSE daylight
14 Dec - 16:14:32 10° WSW 16:17:52 12° WSW 16:21:13 10° SW daylight
15 Dec - 05:28:58 10° SSE 05:35:00 19° SE 05:41:09 10° E visible
15 Dec - 07:29:07 10° SW 07:38:10 53° SSE 07:47:35 10° ENE daylight
15 Dec - 09:33:05 10° WSW 09:42:43 84° S 09:52:45 10° E daylight
15 Dec - 11:38:00 10° W 11:47:46 78° SSW 11:57:52 10° ESE daylight
15 Dec - 13:43:00 10° WNW 13:52:07 43° SW 14:01:25 10° SSE daylight
15 Dec - 15:50:55 10° W 15:55:05 13° WSW 15:59:16 10° SSW daylight
